Location: ???? ?????
(30.0052°N, 31.2891°E)
Time: 21:20:14
(UTC+00:00)

CZ-3 R/B - Pass Details

Date: 26 May 2022
Orbit: 424 x 10169 km, 28.3° (Epoch: 04 July)

Event Time Altitude Azimuth Distance (km) Brightness Sun altitude
Rises 01:03:44 0° 264° (W) 14,810 7.1 -21.2°
Reaches altitude 10° 01:21:10 10° 266° (W) 12,543 6.7 -18.3°
Maximum altitude 02:05:42 85° 185° (S) 2,894 3.9 -10.4°
Drops below altitude 10° 02:15:20 10° 97° (E) 3,532 5.3 -8.6°
Sets 02:17:11 0° 97° (E) 4,088 5.7 -8.3°
